Overview Statistics Trail Chart Weather Telemetry Raw packets
 

This is the latest recevied weather packets stored in our database for station/object DG1ROH. If no packets are shown the sender has not sent any weather packets the latest 10 day(s).

<< 207 208 209 210 211 212 213 >>
Time Temp. Humidity Pressure Rain* Wind** Luminosity Snow
1777116063 15.56° C 56% 1012.4 hPa 0 mm - 694 W/m² -
1777115941 15.56° C 58% 1012.4 hPa 0 mm - 694 W/m² -
1777115820 15° C 59% 1012.4 hPa 0 mm - 689 W/m² -
1777115701 15.56° C 61% 1012.5 hPa 0 mm - 687 W/m² -
1777115581 15° C 59% 1012.5 hPa 0 mm - 693 W/m² -
1777115462 15° C 58% 1012.5 hPa 0 mm - 694 W/m² -
1777115341 15° C 62% 1012.7 hPa 0 mm - 693 W/m² -
1777115220 15° C 59% 1012.6 hPa 0 mm - 698 W/m² -
1777115102 15° C 59% 1012.6 hPa 0 mm - 691 W/m² -
1777114981 15° C 61% 1012.5 hPa 0 mm - 687 W/m² -
1777114862 14.44° C 63% 1012.7 hPa 0 mm - 691 W/m² -
1777114741 14.44° C 60% 1012.6 hPa 0 mm - 689 W/m² -
1777114621 14.44° C 61% 1012.7 hPa 0 mm - 684 W/m² -
1777114501 14.44° C 60% 1012.7 hPa 0 mm - 686 W/m² -
1777114381 15° C 60% 1012.6 hPa 0 mm - 694 W/m² -
1777114261 15° C 62% 1012.7 hPa 0 mm - 694 W/m² -
1777114141 14.44° C 63% 1012.7 hPa 0 mm - 689 W/m² -
1777114021 14.44° C 62% 1012.7 hPa 0 mm - 691 W/m² -
1777113900 14.44° C 62% 1012.8 hPa 0 mm - 680 W/m² -
1777113781 13.89° C 62% 1012.8 hPa 0 mm - 689 W/m² -
1777113661 13.89° C 62% 1012.7 hPa 0 mm - 689 W/m² -
1777113541 13.89° C 62% 1012.9 hPa 0 mm - 677 W/m² -
1777113415 13.89° C 62% 1012.8 hPa 0 mm - 570 W/m² -
1777113296 14.44° C 60% 1012.9 hPa 0 mm - 617 W/m² -
1777113175 14.44° C 62% 1012.8 hPa 0 mm - 700 W/m² -

* Rain latest hour (hover to see other rain measurements)
** Current wind speed in m/s (hover to see current wind gust speed)